STARLINK-36712, 67700

Orbit data source: Space-Track

STARLINK-36712, 67700 is a payload satellite owned by SpaceX/Seattle (US) in SSO that was launched on Sat, 07 Feb 2026 UTC via an FALCON 9 launch vehicle from the Air Force Western Test Range (AFWTR). Payload-class satellites include a variety of spacecraft equipped with specific instruments for various scientific and technological missions. These include communications satellites like Starlink; space stations such as the ISS; scientific satellites like the Hubble; Earth observation satellites from companies like Planet Labs, Umbra, and HawkEye 360; GPS; miniature CubeSats for education and research; and military/defense satellites.

Loading next visibility...
Identifier
67700, 2026-025H
Orbit
SSO
Country
Flag of USUS
Related business
Manufacturer
SpaceX/Seattle
Mission
Operational spacecraft
Bus & Motor
STARLINK V2MO, Unknown motor
Mass
575 kg wet, ~530 kg dry
Launch date (UTC)
2026-02-07 (2 months ago)
Launch vehicle
FALCON 9
Launch site
Air Force Western Test Range (AFWTR)
Object type
Payload
Rocket body
Debris
Shape & HBR
Unknown shape, 17.7 m
Radar Cross Section
RCS unknown

Expand to show TLE details & history
Last TLE update: 20 hours ago

TLE from 20 hours ago
0 STARLINK-36712
1 67700U 26025H   26103.54758573  .00012991  00000-0  40387-3 0  9998
2 67700  97.2882 215.7296 0001972  95.8354 264.3114 15.33456401 11356
Epoch: 2026-04-13T13:08Z
TLE epoch observation values (Epoch: 2026-04-13T13:08:31.407Z)
Latitude
0.00004°
Longitude
176.86212°
Altitude
468.755 km
Speed
7.632 km/s
True Right ascension
14h 22m 55s
True Declination
0° 00' 00"
Sunlit
Object was in full shadow at epoch
Visualization orbit readout
Latitude
Unknown
Longitude
Unknown
Altitude
Unknown
Speed
Unknown
Apparent Right ascension
Unknown
Apparent Declination
Unknown
Sunlit
N/A
Visualization observer readout
Local Sidereal Time
15:39:13
Azimuth
Unknown
Elevation
Unknown
Doppler factor
Unknown
Orbital elements
Apogee altitude
463.801 km
Perigee altitude
461.103 km
Semi-major axis
6,840.589 km
Eccentricity
0.0002
Inclination
97.2882°
RAAN
215.7296°
Arg. of periapsis
95.8354°
True anomaly
264.28891°
Mean anomaly
264.3114°
Eccentric anomaly
264.30016°
Mean motion
3.83621 °/min
Orbital period
93.84 mins
BSTAR
0.00040387
Loading maneuver chart data...
Computing Atmospheric mass density...
Loading historical data...
Loading historical data...
Loading historical data...
Loading historical data...
Loading historical data...
Loading historical data...
Loading historical data...

Documentation

Showing up to 5 results
|